This demonstration page uses our WeatherBlox Daily Observations layout. Learn more.

Left ArrowRight Arrow

41.86663, -103.66717

Hourly Observations for March 18, 2017

Temp ( °F °C ) Dew Point ( °F °C ) Humidity (%) Winds ( mph kmh ) Pressure ( in mb ) Visibility ( mi km ) Precip ( " mm )
12:53 am 00:53 Clear 39 3.9 27 -2.8 62 62 E 5 7 30.25 1024 10 16 0.00 0.00
1:53 am 01:53 Clear 36 2.2 27 -2.8 70 70 ESE 8 13 30.25 1025 10 16 0.00 0.00
2:53 am 02:53 Clear 39 3.9 28 -2.2 65 65 ESE 12 19 30.22 1023 10 16 0.00 0.00
3:53 am 03:53 Clear 38 3.3 28 -2.2 68 68 E 10 17 30.20 1023 10 16 0.00 0.00
4:53 am 04:53 Clear 36 2.2 27 -2.8 70 70 ESE 10 17 30.19 1023 10 16 0.00 0.00
5:53 am 05:53 Clear 35 1.7 26 -3.3 70 70 ESE 10 17 30.19 1022 10 16 0.00 0.00
6:53 am 06:53 Clear 34 1.1 26 -3.3 73 73 ESE 10 17 30.20 1023 10 16 0.00 0.00
7:53 am 07:53 Sunny 36 2.2 26 -3.3 67 67 ESE 12 19 30.20 1023 10 16 0.00 0.00
8:53 am 08:53 Sunny 42 5.6 29 -1.7 60 60 ESE 9 15 30.20 1023 10 16 0.00 0.00
9:53 am 09:53 Sunny 49 9.4 32 0 52 52 ESE 7 11 30.18 1022 10 16 0.00 0.00
10:53 am 10:53 Sunny 56 13.3 33 0.6 42 42 VRB 3 6 30.15 1021 10 16 0.00 0.00
11:53 am 11:53 Sunny 62 16.7 35 1.7 37 37 ESE 3 6 30.11 1020 10 16 0.00 0.00
12:53 pm 12:53 Sunny 68 20 35 1.7 30 30 SE 8 13 30.06 1018 10 16 0.00 0.00
1:53 pm 13:53 Sunny 75 23.9 31 -0.6 20 20 VRB 5 7 30.01 1016 10 16 0.00 0.00
2:53 pm 14:53 Sunny 79 26.1 30 -1.1 17 17 N 5 7 29.97 1015 10 16 0.00 0.00
3:53 pm 15:53 Sunny 82 27.8 25 -3.9 12 12 N 5 7 29.93 1014 10 16 0.00 0.00
4:53 pm 16:53 Sunny 81 27.2 24 -4.4 12 12 Calm 29.92 1013 10 16 0.00 0.00
5:53 pm 17:53 Sunny 78 25.6 26 -3.3 15 15 SE 10 17 29.92 1013 10 16 0.00 0.00
6:53 pm 18:53 Hazy 71 21.7 31 -0.6 23 23 SE 10 17 29.94 1014 4 6 0.00 0.00
7:53 pm 19:53 Clear 67 19.4 31 -0.6 26 26 SE 9 15 29.94 1014 10 16 0.00 0.00
8:53 pm 20:53 Clear 59 15 31 -0.6 35 35 ESE 7 11 29.95 1014 10 16 0.00 0.00
9:53 pm 21:53 Clear 53 11.7 31 -0.6 43 43 ENE 8 13 29.96 1014 10 16 0.00 0.00
10:53 pm 22:53 Clear 51 10.6 30 -1.1 44 44 NNW 5 7 29.94 1014 10 16 0.00 0.00
11:53 pm 23:53 Clear 50 10 30 -1.1 46 46 E 12 19 29.92 1013 10 16 0.00 0.00

Powered by AerisWeather